Location: Bothwell
(42.3833°S, 147.0000°E)
Time: 22:28:47
(UTC+11:00)

RS-44 - Pass Details

Date: 01 October 2022
Orbit: 1175 x 1510 km, 82.5° (Epoch: 29 November)

Event Time Altitude Azimuth Distance (km) Brightness Sun altitude
Exits shadow 01:07:24 14° 243° (WSW) 3,374 ? -42.3°
Maximum altitude 01:08:26 14° 235° (SW) 3,362 ? -42.2°
Drops below altitude 10° 01:12:42 10° 206° (SSW) 3,697 ? -41.9°
Sets 01:17:49 0° 182° (S) 4,685 ? -41.5°
